Content
SEND FEEDBACK

Daily
Averages
Monthly
Summary
France

OISSEL, FRANCE


Home > Europe > France
Elevation: 515 feet     Latitude: 49 22N     Longitude: 001 10E

WEATHER
 
SELECT A DAY
Number of Records: 184,288;   Date Range: 7/1/96 - 12/17/14
 
SHARE

PRINT THIS DATA

[ ← Previous Day ]
WEATHER ALMANAC - MAY 14, 2013
[ Next Day → ]
[ °C ]   °F
Weather ElementAverageHighLow
Temperature49.4 °F52 °F (8:00 pm)44.6 °F (6:00 am)
Dewpoint42.8 °F48.2 °F (7:00 pm)38 °F (2:00 am)
Humidity77.9 %88 % (7:00 pm)63 % (2:00 am)
Barometer29.76 in29.97 in (2:00 am)29.47 in (11:00 pm)
Wind Speed10.3 mph20.7 mph (11:30 pm)
Weather ElementAverage
Visibility6.8 mi
Wind DirectionSSW (203.9 °)

Weather ElementTotal
Precipitation---
Heating Degree Days16.7 (Base 65)
Averaged from 51 records on May 14, 2013
WEATHER CONDITIONS BREAKOUT
WIND DIRECTION BREAKOUT
WEATHER BY HOUR - MAY 14, 2013
[ °C ]   °F
Local TimeTemperatureDewpointHumidityBarometerVisibilityWind DirectionWind SpeedGust SpeedPrecipitationEventsConditions
12:30 AM48.2 °F41.0 °F76 %29.95 in6.2 miWSW (250°)8.1 mphOvercast
1:00 AM48.2 °F39.2 °F71 %29.95 in6.2 miWSW (240°)9.2 mphMostly Cloudy
1:30 AM48.2 °F39.2 °F71 %29.95 in6.2 miWSW (240°)9.2 mphMostly Cloudy
2:00 AM47.0 °F38.0 °F63 %29.97 in25.0 miWSW (250°)9.2 mphClear
2:00 AM46.4 °F39.2 °F76 %29.95 in6.2 miWSW (250°)9.2 mph
2:30 AM46.4 °F39.2 °F76 %29.95 in6.2 miWest (260°)9.2 mph
3:00 AM46.4 °F39.2 °F76 %29.92 in6.2 miWest (260°)10.4 mph
3:30 AM46.4 °F39.2 °F76 %29.92 in6.2 miWSW (240°)8.1 mphMostly Cloudy
4:00 AM46.4 °F39.2 °F76 %29.92 in6.2 miWSW (250°)9.2 mphMostly Cloudy
4:30 AM46.4 °F39.2 °F76 %29.92 in6.2 miSW (230°)9.2 mphOvercast
5:00 AM46.4 °F39.2 °F76 %29.92 in6.2 miSW (220°)8.1 mphOvercast
5:30 AM46.4 °F39.2 °F76 %29.89 in6.2 miSW (220°)8.1 mphMostly Cloudy
6:00 AM44.6 °F41.0 °F87 %29.89 in6.2 miSW (220°)8.1 mph
6:30 AM44.6 °F41.0 °F87 %29.89 in6.2 miSW (220°)8.1 mphMostly Cloudy
7:00 AM46.4 °F41.0 °F81 %29.89 in6.2 miSW (230°)8.1 mphOvercast
7:30 AM46.4 °F41.0 °F81 %29.86 in6.2 miSW (220°)8.1 mphMostly Cloudy
8:00 AM47.0 °F41.0 °F72 %29.89 in9.0 miSW (220°)6.9 mphOvercast
8:00 AM46.4 °F41.0 °F81 %29.86 in6.2 miSW (220°)8.1 mphMostly Cloudy
8:30 AM48.2 °F41.0 °F76 %29.86 in6.2 miSSW (210°)9.2 mphMostly Cloudy
9:00 AM48.2 °F42.8 °F82 %29.86 in6.2 miSW (220°)9.2 mphMostly Cloudy
9:30 AM50.0 °F41.0 °F71 %29.86 in6.2 miSW (220°)9.2 mphMostly Cloudy
10:00 AM50.0 °F41.0 °F71 %29.86 in6.2 miSW (230°)9.2 mphOvercast
10:30 AM50.0 °F42.8 °F76 %29.83 in6.2 miSW (220°)10.4 mphOvercast
11:00 AM51.8 °F42.8 °F71 %29.83 in6.2 miSSW (210°)11.5 mphMostly Cloudy
11:30 AM51.8 °F41.0 °F67 %29.83 in6.2 miSSW (210°)11.5 mphMostly Cloudy
12:00 PM51.8 °F41.0 °F67 %29.80 in6.2 miSSW (200°)10.4 mphOvercast
12:30 PM51.8 °F42.8 °F71 %29.80 in6.2 miSSW (200°)15.0 mphRainLight Rain
1:00 PM51.8 °F42.8 °F71 %29.77 in6.2 miSSW (210°)15.0 mphRainLight Rain
1:30 PM50.0 °F42.8 °F76 %29.77 in6.2 miSW (220°)11.5 mphRainLight Rain
2:00 PM51.0 °F43.0 °F66 %29.77 in12.0 miSW (220°)9.2 mphRainLight Rain
2:00 PM51.8 °F42.8 °F71 %29.74 in6.2 miSW (220°)9.2 mphOvercast
2:30 PM50.0 °F42.8 °F76 %29.74 in6.2 miSSW (200°)13.8 mphOvercast
3:00 PM50.0 °F41.0 °F71 %29.74 in6.2 miSSW (200°)15.0 mphOvercast
3:30 PM50.0 °F41.0 °F71 %29.71 in6.2 miSSW (200°)18.4 mphRainLight Rain
4:00 PM50.0 °F42.8 °F76 %29.71 in6.2 miSSW (200°)11.5 mphRainLight Rain
4:30 PM50.0 °F44.6 °F82 %29.68 in6.2 miSSE (160°)8.1 mphRainLight Rain
5:00 PM50.0 °F46.4 °F87 %29.65 in6.2 miSSE (150°)9.2 mphRainLight Rain
5:30 PM50.0 °F46.4 °F87 %29.62 in6.2 miSSE (160°)10.4 mphRainLight Rain
6:00 PM50.0 °F44.6 °F82 %29.62 in6.2 miSE (140°)8.1 mphOvercast
6:30 PM51.8 °F46.4 °F82 %29.59 in6.2 miSE (140°)9.2 mphOvercast
7:00 PM51.8 °F48.2 °F88 %29.56 in6.2 miSE (140°)10.4 mphLight Drizzle
7:30 PM51.8 °F48.2 °F88 %29.56 in6.2 miSE (140°)8.1 mphOvercast
8:00 PM52.0 °F48.0 °F82 %29.56 in10.0 miSE (140°)6.9 mphRainLight Rain
8:00 PM51.8 °F48.2 °F88 %29.53 in6.2 miSE (140°)6.9 mphRainLight Rain
8:30 PM51.8 °F48.2 °F88 %29.53 in6.2 miSSE (160°)9.2 mphRainLight Rain
9:00 PM51.8 °F48.2 °F88 %29.50 in6.2 miSouth (180°)9.2 mphRainLight Rain
9:30 PM51.8 °F48.2 °F88 %29.50 in6.2 miSouth (170°)6.9 mphOvercast
10:00 PM51.8 °F48.2 °F88 %29.50 in6.2 miSSW (200°)13.8 mphOvercast
10:30 PM51.8 °F46.4 °F82 %29.50 in6.2 miSouth (180°)16.1 mphRainLight Rain
11:00 PM51.8 °F46.4 °F82 %29.47 in6.2 miSouth (180°)16.1 mphMostly Cloudy
11:30 PM51.8 °F46.4 °F82 %29.47 in6.2 miSouth (190°)20.7 mphMostly Cloudy
Hourly data recorded from LFOP, located miles away from Oissel, France







STORIES FROM OUR PARTNERS